Time,TemperatureF,DewpointF,PressureIn,WindDirection,WindDirectionDegrees,WindSpeedMPH,WindSpeedGustMPH,Humidity,HourlyPrecipIn,Conditions,Clouds,dailyrainin,SoftwareType,DateUTC
2013-04-04 00:03:00,30.0,11.0,-100.00,SE,130,5.0,6.0,45,0.00,,,-99.99,,2013-04-04 04:03:00,
2013-04-04 00:12:00,29.0,13.0,-100.00,SE,130,7.0,7.0,51,0.00,,,-99.99,,2013-04-04 04:12:00,
2013-04-04 00:23:00,30.0,13.0,-100.00,SE,125,6.0,9.0,49,0.00,,,-99.99,,2013-04-04 04:23:00,
2013-04-04 00:33:00,29.0,14.0,-100.00,SE,125,7.0,9.0,52,0.00,,,-99.99,,2013-04-04 04:33:00,
2013-04-04 00:43:00,29.0,14.0,-100.00,SE,130,5.0,8.0,51,0.00,,,-99.99,,2013-04-04 04:43:00,
2013-04-04 00:52:00,30.0,13.0,-100.00,SE,135,5.0,7.0,50,0.00,,,-99.99,,2013-04-04 04:52:00,
2013-04-04 01:02:00,30.0,14.0,-100.00,SE,140,5.0,9.0,49,0.00,,,-99.99,,2013-04-04 05:02:00,
2013-04-04 01:13:00,30.0,14.0,-100.00,SE,135,6.0,8.0,51,0.00,,,-99.99,,2013-04-04 05:13:00,
2013-04-04 01:23:00,30.0,15.0,-100.00,SE,130,5.0,7.0,53,0.00,,,-99.99,,2013-04-04 05:23:00,
2013-04-04 01:32:00,30.0,15.0,-100.00,SE,130,5.0,7.0,53,0.00,,,-99.99,,2013-04-04 05:32:00,
2013-04-04 01:42:00,30.0,15.0,-100.00,SE,135,6.0,9.0,53,0.00,,,-99.99,,2013-04-04 05:42:00,
2013-04-04 01:52:00,29.0,15.0,-100.00,SSE,150,4.0,7.0,53,0.00,,,-99.99,,2013-04-04 05:52:00,
2013-04-04 02:02:00,28.0,15.0,-100.00,SSE,150,6.0,8.0,57,0.00,,,-99.99,,2013-04-04 06:02:00,
2013-04-04 02:12:00,27.0,15.0,-100.00,SSE,155,4.0,7.0,61,0.00,,,-99.99,,2013-04-04 06:12:00,
2013-04-04 02:22:00,27.0,16.0,-100.00,SSE,155,3.0,6.0,61,0.00,,,-99.99,,2013-04-04 06:22:00,
2013-04-04 02:32:00,26.0,15.0,-100.00,SSE,155,4.0,6.0,61,0.00,,,-99.99,,2013-04-04 06:32:00,
2013-04-04 02:42:00,28.0,15.0,-100.00,SSE,150,4.0,9.0,57,0.00,,,-99.99,,2013-04-04 06:42:00,
2013-04-04 02:52:00,27.0,15.0,-100.00,SSE,155,6.0,7.0,60,0.00,,,-99.99,,2013-04-04 06:52:00,
2013-04-04 03:02:00,27.0,15.0,-100.00,SSE,150,6.0,10.0,59,0.00,,,-99.99,,2013-04-04 07:02:00,
2013-04-04 03:12:00,26.0,15.0,-100.00,SSE,160,3.0,6.0,62,0.00,,,-99.99,,2013-04-04 07:12:00,
2013-04-04 03:22:00,26.0,15.0,-100.00,SSE,165,4.0,7.0,63,0.00,,,-99.99,,2013-04-04 07:22:00,
2013-04-04 03:32:00,27.0,15.0,-100.00,SSE,160,3.0,7.0,61,0.00,,,-99.99,,2013-04-04 07:32:00,
2013-04-04 03:43:00,26.0,15.0,-100.00,South,170,2.0,3.0,62,0.00,,,-99.99,,2013-04-04 07:43:00,
2013-04-04 03:52:00,26.0,15.0,-100.00,South,170,3.0,4.0,62,0.00,,,-99.99,,2013-04-04 07:52:00,
2013-04-04 04:03:00,26.0,16.0,-100.00,South,170,4.0,8.0,63,0.00,,,-99.99,,2013-04-04 08:03:00,
2013-04-04 04:12:00,26.0,15.0,-100.00,SSE,160,4.0,4.0,61,0.00,,,-99.99,,2013-04-04 08:12:00,
2013-04-04 04:23:00,25.0,15.0,-100.00,SSE,155,4.0,5.0,64,0.00,,,-99.99,,2013-04-04 08:23:00,
2013-04-04 04:32:00,26.0,15.0,-100.00,SSE,160,4.0,9.0,63,0.00,,,-99.99,,2013-04-04 08:32:00,
2013-04-04 04:43:00,26.0,15.0,-100.00,SSE,160,3.0,4.0,63,0.00,,,-99.99,,2013-04-04 08:43:00,
2013-04-04 04:52:00,26.0,15.0,-100.00,SSE,165,2.0,7.0,61,0.00,,,-99.99,,2013-04-04 08:52:00,
2013-04-04 05:03:00,27.0,15.0,-100.00,SSE,160,0.0,4.0,59,0.00,,,-99.99,,2013-04-04 09:03:00,
2013-04-04 05:12:00,27.0,14.0,-100.00,SSE,155,1.0,2.0,59,0.00,,,-99.99,,2013-04-04 09:12:00,
2013-04-04 05:22:00,27.0,14.0,-100.00,SSE,150,0.0,0.0,58,0.00,,,-99.99,,2013-04-04 09:22:00,
2013-04-04 05:34:00,26.0,14.0,-100.00,SE,145,0.0,0.0,59,0.00,,,-99.99,,2013-04-04 09:34:00,
2013-04-04 05:43:00,27.0,14.0,-100.00,SE,135,0.0,2.0,58,0.00,,,-99.99,,2013-04-04 09:43:00,
2013-04-04 05:53:00,26.0,14.0,-100.00,SE,140,0.0,0.0,60,0.00,,,-99.99,,2013-04-04 09:53:00,
2013-04-04 06:04:00,25.0,14.0,-100.00,SE,135,1.0,3.0,63,0.00,,,-99.99,,2013-04-04 10:04:00,
2013-04-04 06:12:00,25.0,15.0,-100.00,SE,135,2.0,8.0,64,0.00,,,-99.99,,2013-04-04 10:12:00,
2013-04-04 06:24:00,25.0,14.0,-100.00,SE,135,2.0,7.0,64,0.00,,,-99.99,,2013-04-04 10:24:00,
2013-04-04 06:33:00,24.0,15.0,-100.00,SE,140,0.0,3.0,65,0.00,,,-99.99,,2013-04-04 10:33:00,
2013-04-04 06:42:00,25.0,15.0,-100.00,SSW,205,2.0,6.0,65,0.00,,,-99.99,,2013-04-04 10:42:00,
2013-04-04 06:53:00,26.0,15.0,-100.00,SSE,150,2.0,6.0,63,0.00,,,-99.99,,2013-04-04 10:53:00,
2013-04-04 07:03:00,26.0,15.0,-100.00,SE,135,0.0,11.0,60,0.00,,,-99.99,,2013-04-04 11:03:00,
2013-04-04 07:12:00,26.0,15.0,-100.00,SE,135,0.0,1.0,61,0.00,,,-99.99,,2013-04-04 11:12:00,
2013-04-04 07:22:00,26.0,14.0,-100.00,SE,140,0.0,0.0,61,0.00,,,-99.99,,2013-04-04 11:22:00,
2013-04-04 07:33:00,25.0,15.0,-100.00,East,100,0.0,1.0,64,0.00,,,-99.99,,2013-04-04 11:33:00,
2013-04-04 07:42:00,24.0,15.0,-100.00,SE,130,0.0,1.0,67,0.00,,,-99.99,,2013-04-04 11:42:00,
2013-04-04 07:53:00,24.0,15.0,-100.00,SE,135,0.0,1.0,68,0.00,,,-99.99,,2013-04-04 11:53:00,
2013-04-04 08:03:00,24.0,15.0,-100.00,WSW,250,0.0,1.0,70,0.00,,,-99.99,,2013-04-04 12:03:00,
2013-04-04 08:12:00,25.0,16.0,-100.00,SE,125,0.0,8.0,70,0.00,,,-99.99,,2013-04-04 12:12:00,
2013-04-04 08:22:00,26.0,17.0,-100.00,SE,130,0.0,4.0,68,0.00,,,-99.99,,2013-04-04 12:22:00,
2013-04-04 08:33:00,26.0,17.0,-100.00,East,100,0.0,2.0,70,0.00,,,-99.99,,2013-04-04 12:33:00,
2013-04-04 08:43:00,26.0,19.0,-100.00,East,100,0.0,0.0,73,0.00,,,-99.99,,2013-04-04 12:43:00,
2013-04-04 08:52:00,28.0,19.0,-100.00,ESE,115,0.0,6.0,68,0.00,,,-99.99,,2013-04-04 12:52:00,
2013-04-04 09:02:00,29.0,19.0,-100.00,SE,145,1.0,6.0,65,0.00,,,-99.99,,2013-04-04 13:02:00,
2013-04-04 09:12:00,31.0,19.0,-100.00,SE,145,1.0,2.0,59,0.00,,,-99.99,,2013-04-04 13:12:00,
2013-04-04 09:22:00,31.0,18.0,-100.00,SE,145,2.0,4.0,56,0.00,,,-99.99,,2013-04-04 13:22:00,
2013-04-04 09:33:00,32.0,18.0,-100.00,SE,145,4.0,6.0,53,0.00,,,-99.99,,2013-04-04 13:33:00,
2013-04-04 09:42:00,33.0,18.0,-100.00,SE,145,4.0,6.0,52,0.00,,,-99.99,,2013-04-04 13:42:00,
2013-04-04 09:52:00,34.0,17.0,-100.00,SSE,150,6.0,9.0,49,0.00,,,-99.99,,2013-04-04 13:52:00,
2013-04-04 10:03:00,35.0,16.0,-100.00,SSE,155,6.0,8.0,45,0.00,,,-99.99,,2013-04-04 14:03:00,
2013-04-04 10:13:00,37.0,17.0,-100.00,SSE,155,4.0,7.0,43,0.00,,,-99.99,,2013-04-04 14:13:00,
2013-04-04 10:22:00,38.0,16.0,-100.00,SSE,165,6.0,9.0,40,0.00,,,-99.99,,2013-04-04 14:22:00,
2013-04-04 10:33:00,38.0,16.0,-100.00,SE,145,6.0,7.0,41,0.00,,,-99.99,,2013-04-04 14:33:00,
2013-04-04 10:43:00,38.0,16.0,-100.00,SSE,155,4.0,9.0,39,0.00,,,-99.99,,2013-04-04 14:43:00,
2013-04-04 10:52:00,39.0,16.0,-100.00,SSE,165,7.0,11.0,37,0.00,,,-99.99,,2013-04-04 14:52:00,
2013-04-04 11:03:00,40.0,15.0,-100.00,SSE,160,6.0,11.0,36,0.00,,,-99.99,,2013-04-04 15:03:00,
2013-04-04 11:12:00,41.0,15.0,-100.00,SSE,160,9.0,10.0,34,0.00,,,-99.99,,2013-04-04 15:12:00,
2013-04-04 11:23:00,41.0,15.0,-100.00,SSE,160,4.0,11.0,34,0.00,,,-99.99,,2013-04-04 15:23:00,
2013-04-04 11:33:00,42.0,15.0,-100.00,SSE,165,5.0,9.0,31,0.00,,,-99.99,,2013-04-04 15:33:00,
2013-04-04 11:43:00,43.0,13.0,-100.00,South,170,7.0,10.0,29,0.00,,,-99.99,,2013-04-04 15:43:00,
2013-04-04 11:53:00,43.0,13.0,-100.00,South,180,4.0,9.0,29,0.00,,,-99.99,,2013-04-04 15:53:00,
2013-04-04 12:03:00,43.0,11.0,-100.00,SSE,160,7.0,10.0,26,0.00,,,-99.99,,2013-04-04 16:03:00,
2013-04-04 12:12:00,45.0,12.0,-100.00,SSE,155,6.0,9.0,26,0.00,,,-99.99,,2013-04-04 16:12:00,
2013-04-04 12:24:00,45.0,12.0,-100.00,SSE,160,6.0,13.0,25,0.00,,,-99.99,,2013-04-04 16:24:00,
2013-04-04 12:33:00,45.0,12.0,-100.00,South,170,4.0,9.0,25,0.00,,,-99.99,,2013-04-04 16:33:00,
2013-04-04 12:42:00,46.0,12.0,-100.00,SSE,165,4.0,7.0,24,0.00,,,-99.99,,2013-04-04 16:42:00,
2013-04-04 12:53:00,46.0,12.0,-100.00,SSE,165,4.0,7.0,24,0.00,,,-99.99,,2013-04-04 16:53:00,
2013-04-04 13:03:00,47.0,11.0,-100.00,SSW,195,5.0,10.0,23,0.00,,,-99.99,,2013-04-04 17:03:00,
2013-04-04 13:13:00,48.0,13.0,-100.00,SSE,165,7.0,10.0,23,0.00,,,-99.99,,2013-04-04 17:13:00,
2013-04-04 13:23:00,49.0,12.0,-100.00,SE,135,1.0,9.0,22,0.00,,,-99.99,,2013-04-04 17:23:00,
2013-04-04 13:33:00,49.0,12.0,-100.00,South,180,2.0,10.0,21,0.00,,,-99.99,,2013-04-04 17:33:00,
2013-04-04 13:42:00,49.0,11.0,-100.00,South,180,3.0,12.0,21,0.00,,,-99.99,,2013-04-04 17:42:00,
2013-04-04 13:52:00,50.0,11.0,-100.00,South,190,6.0,11.0,20,0.00,,,-99.99,,2013-04-04 17:52:00,
2013-04-04 14:02:00,50.0,11.0,-100.00,South,190,5.0,10.0,19,0.00,,,-99.99,,2013-04-04 18:02:00,
2013-04-04 14:12:00,50.0,10.0,-100.00,SSW,205,4.0,9.0,19,0.00,,,-99.99,,2013-04-04 18:12:00,
2013-04-04 14:23:00,51.0,11.0,-100.00,SSE,155,4.0,12.0,19,0.00,,,-99.99,,2013-04-04 18:23:00,
2013-04-04 14:32:00,51.0,11.0,-100.00,SSE,155,4.0,12.0,19,0.00,,,-99.99,,2013-04-04 18:32:00,
2013-04-04 14:43:00,53.0,13.0,-100.00,South,190,9.0,16.0,20,0.00,,,-99.99,,2013-04-04 18:43:00,
2013-04-04 14:52:00,54.0,10.0,-100.00,South,170,4.0,12.0,17,0.00,,,-99.99,,2013-04-04 18:52:00,
2013-04-04 15:02:00,53.0,11.0,-100.00,SSE,165,5.0,14.0,18,0.00,,,-99.99,,2013-04-04 19:02:00,
2013-04-04 15:12:00,53.0,9.0,-100.00,South,175,2.0,12.0,16,0.00,,,-99.99,,2013-04-04 19:12:00,
2013-04-04 15:22:00,54.0,10.0,-100.00,South,170,7.0,12.0,16,0.00,,,-99.99,,2013-04-04 19:22:00,
2013-04-04 15:33:00,54.0,8.0,-100.00,SSW,205,7.0,12.0,15,0.00,,,-99.99,,2013-04-04 19:33:00,
2013-04-04 15:42:00,55.0,11.0,-100.00,SE,140,2.0,12.0,16,0.00,,,-99.99,,2013-04-04 19:42:00,
2013-04-04 15:52:00,54.0,9.0,-100.00,SSE,165,7.0,11.0,16,0.00,,,-99.99,,2013-04-04 19:52:00,
2013-04-04 16:04:00,55.0,11.0,-100.00,SSE,165,5.0,9.0,16,0.00,,,-99.99,,2013-04-04 20:04:00,
2013-04-04 16:12:00,55.0,11.0,-100.00,SSW,205,3.0,10.0,17,0.00,,,-99.99,,2013-04-04 20:12:00,
2013-04-04 16:23:00,56.0,11.0,-100.00,South,170,4.0,12.0,16,0.00,,,-99.99,,2013-04-04 20:23:00,
2013-04-04 16:32:00,55.0,10.0,-100.00,SSW,210,5.0,12.0,16,0.00,,,-99.99,,2013-04-04 20:32:00,
2013-04-04 16:42:00,54.0,11.0,-100.00,SSW,210,6.0,11.0,17,0.00,,,-99.99,,2013-04-04 20:42:00,
2013-04-04 16:52:00,56.0,11.0,-100.00,SSW,205,4.0,12.0,16,0.00,,,-99.99,,2013-04-04 20:52:00,
2013-04-04 17:02:00,56.0,11.0,-100.00,SSW,205,4.0,12.0,16,0.00,,,-99.99,,2013-04-04 21:02:00,
2013-04-04 17:12:00,56.0,11.0,-100.00,SSW,200,7.0,12.0,16,0.00,,,-99.99,,2013-04-04 21:12:00,
2013-04-04 17:22:00,56.0,12.0,-100.00,SSW,205,9.0,14.0,16,0.00,,,-99.99,,2013-04-04 21:22:00,
2013-04-04 17:33:00,55.0,10.0,-100.00,SW,225,8.0,12.0,16,0.00,,,-99.99,,2013-04-04 21:33:00,
2013-04-04 17:43:00,56.0,12.0,-100.00,SW,235,6.0,12.0,17,0.00,,,-99.99,,2013-04-04 21:43:00,
2013-04-04 17:53:00,56.0,11.0,-100.00,SW,235,7.0,13.0,16,0.00,,,-99.99,,2013-04-04 21:53:00,
2013-04-04 18:04:00,56.0,13.0,-100.00,SW,220,9.0,17.0,17,0.00,,,-99.99,,2013-04-04 22:04:00,
2013-04-04 18:12:00,56.0,12.0,-100.00,SW,215,9.0,14.0,17,0.00,,,-99.99,,2013-04-04 22:12:00,
2013-04-04 18:20:00,55.0,11.0,-100.00,SW,220,6.0,12.0,16,0.00,,,-99.99,,2013-04-04 22:20:00,
2013-04-04 18:23:00,57.0,12.0,-100.00,South,190,6.0,11.0,16,0.00,,,-99.99,,2013-04-04 22:23:00,
2013-04-04 18:33:00,56.0,11.0,-100.00,SSW,205,10.0,14.0,16,0.00,,,-99.99,,2013-04-04 22:33:00,
2013-04-04 18:42:00,55.0,11.0,-100.00,SW,220,6.0,12.0,16,0.00,,,-99.99,,2013-04-04 22:42:00,
2013-04-04 18:53:00,55.0,11.0,-100.00,SW,220,6.0,12.0,16,0.00,,,-99.99,,2013-04-04 22:53:00,
2013-04-04 19:03:00,55.0,11.0,-100.00,SW,220,6.0,12.0,16,0.00,,,-99.99,,2013-04-04 23:03:00,
2013-04-04 19:12:00,55.0,11.0,-100.00,SW,220,6.0,12.0,16,0.00,,,-99.99,,2013-04-04 23:12:00,
2013-04-04 19:43:00,55.0,14.0,-100.00,SW,225,5.0,10.0,19,0.00,,,-99.99,,2013-04-04 23:43:00,
2013-04-04 19:53:00,54.0,14.0,-100.00,SW,215,9.0,11.0,19,0.00,,,-99.99,,2013-04-04 23:53:00,
2013-04-04 20:03:00,53.0,15.0,-100.00,SW,230,6.0,10.0,21,0.00,,,-99.99,,2013-04-05 00:03:00,
2013-04-04 20:12:00,51.0,15.0,-100.00,SW,230,6.0,7.0,23,0.00,,,-99.99,,2013-04-05 00:12:00,
2013-04-04 20:22:00,50.0,15.0,-100.00,SW,230,6.0,7.0,23,0.00,,,-99.99,,2013-04-05 00:22:00,
2013-04-04 20:33:00,47.0,15.0,-100.00,SW,235,6.0,7.0,27,0.00,,,-99.99,,2013-04-05 00:33:00,
2013-04-04 20:42:00,48.0,15.0,-100.00,SW,230,4.0,6.0,26,0.00,,,-99.99,,2013-04-05 00:42:00,
2013-04-04 20:52:00,48.0,15.0,-100.00,SW,230,4.0,5.0,26,0.00,,,-99.99,,2013-04-05 00:52:00,
2013-04-04 21:02:00,48.0,15.0,-100.00,SW,230,4.0,5.0,26,0.00,,,-99.99,,2013-04-05 01:02:00,
2013-04-04 21:12:00,48.0,15.0,-100.00,SW,230,4.0,5.0,26,0.00,,,-99.99,,2013-04-05 01:12:00,
2013-04-04 21:22:00,45.0,16.0,-100.00,SW,220,3.0,4.0,30,0.00,,,-99.99,,2013-04-05 01:22:00,
2013-04-04 21:32:00,44.0,17.0,-100.00,SW,225,2.0,3.0,32,0.00,,,-99.99,,2013-04-05 01:32:00,
2013-04-04 21:42:00,44.0,17.0,-100.00,SW,225,2.0,3.0,32,0.00,,,-99.99,,2013-04-05 01:42:00,
2013-04-04 21:54:00,42.0,20.0,-100.00,SSW,210,2.0,2.0,41,0.00,,,-99.99,,2013-04-05 01:54:00,
2013-04-04 22:03:00,42.0,20.0,-100.00,SSW,210,2.0,2.0,41,0.00,,,-99.99,,2013-04-05 02:03:00,
2013-04-04 22:12:00,43.0,19.0,-100.00,SSW,210,2.0,8.0,36,0.00,,,-99.99,,2013-04-05 02:12:00,
2013-04-04 22:22:00,41.0,19.0,-100.00,SSW,205,1.0,2.0,41,0.00,,,-99.99,,2013-04-05 02:22:00,
2013-04-04 22:32:00,39.0,19.0,-100.00,SSW,200,1.0,2.0,44,0.00,,,-99.99,,2013-04-05 02:32:00,
2013-04-04 22:42:00,40.0,17.0,-100.00,SSW,200,1.0,3.0,38,0.00,,,-99.99,,2013-04-05 02:42:00,
2013-04-04 22:52:00,39.0,19.0,-100.00,SSW,195,0.0,1.0,43,0.00,,,-99.99,,2013-04-05 02:52:00,
2013-04-04 23:02:00,39.0,19.0,-100.00,SSW,205,0.0,0.0,45,0.00,,,-99.99,,2013-04-05 03:02:00,
2013-04-04 23:12:00,39.0,19.0,-100.00,SSW,205,1.0,4.0,43,0.00,,,-99.99,,2013-04-05 03:12:00,
2013-04-04 23:22:00,38.0,19.0,-100.00,SW,220,1.0,2.0,46,0.00,,,-99.99,,2013-04-05 03:22:00,
2013-04-04 23:32:00,37.0,22.0,-100.00,SW,220,2.0,2.0,54,0.00,,,-99.99,,2013-04-05 03:32:00,
2013-04-04 23:43:00,38.0,20.0,-100.00,SW,215,1.0,3.0,48,0.00,,,-99.99,,2013-04-05 03:43:00,
2013-04-04 23:53:00,40.0,18.0,-100.00,SW,215,2.0,10.0,41,0.00,,,-99.99,,2013-04-05 03:53:00,